Regional Weather Roundup
Issued by NWS

Home | Current Version | Previous Version | Text Only | Print | Product List | Glossary On
Versions: 1 2 3 4 5 6 7 8 9 10 11 12 13 14 15 16 17 18 19 20 21 22 23 24 25 26 27 28 29 30 31 32 33 34 35 36 37 38 39 40 41 42 43 44 45 46 47 48 49 50
000
ASUS46 KSTO 201704
RWRCA

NORTHERN AND CENTRAL CA REGIONAL WEATHER ROUNDUP
NATIONAL WEATHER SERVICE SACRAMENTO CA
1000 AM PDT FRI OCT 20 2017

NOTE: FAIR INDICATES FEW OR NO CLOUDS BELOW 12,000 FEET WITH NO
SIGNIFICANT WEATHER AND/OR OBSTRUCTIONS TO VISIBILITY.

CAZ001-003-201800-
NORTHWEST AREA

CITY           SKY/WX    TMP DP  RH WIND       PRES   REMARKS
CRESCENT CITY  PTSUNNY   50  47  89 S17       30.04R
UKIAH          MOSUNNY   50  47  89 CALM      30.09R
$$

CAZ006-505>513-201800-
BAY AREA

CITY           SKY/WX    TMP DP  RH WIND       PRES   REMARKS
SANTA ROSA     PTSUNNY   49  49 100 SW5       30.08R
SAN RAFAEL     N/A       51  MM  MM MISG
NAPA           CLOUDY    56  52  86 SW9       30.08R
CONCORD        CLOUDY    59  51  75 S7        30.08R
OAKLAND CITY   N/A      MM  MM  MM MISG
OAKLAND        CLOUDY    57  52  83 NW3       30.10R
SAN FRAN CITY  N/A       56  MM  84 MISG
SAN FRAN ARPT  CLOUDY    59  49  69 SW7       30.09R
LIVERMORE      CLOUDY    55  51  86 CALM      30.08S
HAYWARD        CLOUDY    58  50  75 S9        30.09R
REDWOOD CITY   N/A       54  MM  97 MISG
MOFFETT ARPT   CLOUDY    57  51  80 CALM      30.10S
SAN JOSE ARPT  CLOUDY    58  52  80 CALM      30.10R
$$
CAZ034-037-514>518-201800-
CENTRAL COAST

CITY           SKY/WX    TMP DP  RH WIND       PRES   REMARKS
WATSONVILLE    PTSUNNY   57  57 100 CALM      30.11R
SALINAS        SUNNY     59  51  75 CALM      30.10R
MONTEREY       SUNNY     58  49  72 SW6       30.11R
SAN LUIS OBISP MOSUNNY   63  50  62 NW16      30.05R
SANTA MARIA    PTSUNNY   62  53  72 NW15      30.04R
$$
CAZ015-016-201800-
NORTHERN SACRAMENTO VALLEY

CITY           SKY/WX    TMP DP  RH WIND       PRES   REMARKS
REDDING        MOSUNNY   53  49  86 S7        30.04R
RED BLUFF      PTSUNNY   54  49  83 S8        30.06R
OROVILLE       SUNNY     56  51  84 SE15      30.07R
$$
CAZ016>018-201800-
SOUTHERN SACRAMENTO VALLEY

CITY           SKY/WX    TMP DP  RH WIND       PRES   REMARKS
AUBURN         MOSUNNY   52  46  82 S7        30.06S
BEALE AFB      MOSUNNY   55  51  84 SE13      30.05R
LINCOLN        FAIR      54  46  76 S9        30.06R
MARYSVILLE     MOSUNNY   55  50  83 S8        30.07R
SAC INTL ARPT  PTSUNNY   54  51  90 S6        30.06R
MATHER AIRPORT MOSUNNY   54  50  87 S7        30.07R
DOWNTOWN SAC   N/A       55  MM  MM MISG
SAC EXEC ARPT  PTSUNNY   54  51  90 S3        30.07R
VACAVILLE      CLOUDY    56  51  84 SW7       30.07S
TRAVIS AFB     CLOUDY    56  51  82 W12       30.06R
$$
CAZ019>021-201800-
SAN JOAQUIN VALLEY

CITY           SKY/WX    TMP DP  RH WIND       PRES   REMARKS
STOCKTON       CLOUDY    58  52  80 CALM      30.07R
MODESTO        CLOUDY    57  50  77 NW3       30.07R
MERCED         MOSUNNY   57  49  74 NW14      30.07R
LEMOORE        PTSUNNY   59  51  75 NW20G25   30.07R
FRESNO         PTSUNNY   57  50  77 NW13G22   30.06S
HANFORD        CLOUDY    59  50  72 NW14G23   30.07S
PORTERVILLE    CLOUDY    57  53  86 NW10      30.04S
BAKERSFIELD    LGT RAIN  58  53  84 NW15      30.04R
$$
CAZ011-012-071-201800-
NORTHERN MOUNTAINS

CITY           SKY/WX    TMP DP  RH WIND       PRES   REMARKS
YREKA          MOSUNNY   43  40  89 S6        29.97R
MOUNT SHASTA   PTSUNNY  N/A N/A N/A VRB7      29.97R
ALTURAS          N/A     34  33  96 CALM      29.96R
$$
CAZ011-012-071-201800-
SIERRA NEVADA MTNS

CITY           SKY/WX    TMP DP  RH WIND       PRES   REMARKS
BLUE CANYON    PTSUNNY   34  32  92 SW6       30.05R WCI  29
TRUCKEE        MOSUNNY   34  28  80 CALM      30.01R
TAHOE VLY ARPT SUNNY     36  29  75 S8        30.01R WCI  30
MAMMOTH LAKES  FAIR      48  13  24 SE10G25   29.92R
$$




USA.gov is the U.S. government's official web portal to all federal, state and local government web resources and services.